When you browse on this site, cookies collect data to enhance your experience and personalize the content and advertising you see.
Visit our Privacy Policy to learn more. By continuing to use the site, you agree to this use of cookies and data.
  • In Czech Republic
  • List of Countries
  • For 7 days
  • Water Temperature
  • Weather Map
  • Weather Widgets
  • user-avatar
    Login

    Hourly Weather Mayrhofen

    Today, 30 March, Monday

    Time Temperature Precipitation Wind Pressure Humidity
    00:00 -5°C° 0.5 mm 2 mps 614 mmHg 94%
    01:00 -5°C° 0 mm 2 mps 614 mmHg 96%
    02:00 -6°C° 0.5 mm 2 mps 614 mmHg 95%
    03:00 -6°C° 0.5 mm 2 mps 614 mmHg 95%
    04:00 -6°C° 0.5 mm 2 mps 614 mmHg 95%
    05:00 -6°C° 0.5 mm 2 mps 614 mmHg 94%
    06:00 -6°C° 0.5 mm 2 mps 614 mmHg 94%
    07:00 -7°C° 0.5 mm 2 mps 614 mmHg 93%
    08:00 -6°C° 0.3 mm 2 mps 614 mmHg 91%
    09:00 -6°C° 0.3 mm 2 mps 615 mmHg 89%
    10:00 -5°C° 0.3 mm 2 mps 615 mmHg 87%
    11:00 -6°C° 0.3 mm 3 mps 615 mmHg 87%
    12:00 -5°C° 0.3 mm 3 mps 615 mmHg 87%
    13:00 -5°C° 0.3 mm 3 mps 615 mmHg 87%
    14:00 -5°C° 0.4 mm 3 mps 614 mmHg 88%
    15:00 -6°C° 0.4 mm 3 mps 614 mmHg 88%
    16:00 -6°C° 0.4 mm 3 mps 614 mmHg 89%
    17:00 -7°C° 0.2 mm 3 mps 614 mmHg 91%
    18:00 -7°C° 0.2 mm 2 mps 614 mmHg 92%
    19:00 -8°C° 0.2 mm 2 mps 614 mmHg 94%
    20:00 -9°C° 0.1 mm 2 mps 614 mmHg 94%
    21:00 -10°C° 0.1 mm 2 mps 614 mmHg 94%
    22:00 -13°C° 0.1 mm 2 mps 614 mmHg 94%
    23:00 -13°C° 0 mm 2 mps 614 mmHg 92%

    Tomorrow, 31 March, Tuesday

    Time Temperature Precipitation Wind Pressure Humidity
    00:00 -14°C° 0 mm 2 mps 614 mmHg 90%
    01:00 -14°C° 0 mm 2 mps 614 mmHg 88%
    02:00 -15°C° 0 mm 2 mps 614 mmHg 84%
    03:00 -15°C° 0 mm 2 mps 614 mmHg 80%
    04:00 -15°C° 0 mm 2 mps 613 mmHg 75%
    05:00 -15°C° 0 mm 2 mps 614 mmHg 74%
    06:00 -14°C° 0 mm 2 mps 614 mmHg 73%
    07:00 -13°C° 0 mm 2 mps 615 mmHg 72%
    08:00 -10°C° 0 mm 2 mps 615 mmHg 69%
    09:00 -8°C° 0 mm 2 mps 616 mmHg 66%
    10:00 -6°C° 0 mm 2 mps 617 mmHg 63%
    11:00 -5°C° 0 mm 2 mps 617 mmHg 63%
    12:00 -4°C° 0 mm 2 mps 617 mmHg 64%
    13:00 -5°C° 0 mm 3 mps 617 mmHg 65%
    14:00 -5°C° 0.1 mm 3 mps 617 mmHg 67%
    15:00 -5°C° 0.1 mm 3 mps 616 mmHg 68%
    16:00 -5°C° 0.1 mm 3 mps 616 mmHg 70%
    17:00 -6°C° 0 mm 2 mps 616 mmHg 78%
    18:00 -8°C° 0 mm 2 mps 615 mmHg 85%
    19:00 -10°C° 0 mm 2 mps 615 mmHg 92%
    20:00 -9°C° 0 mm 1 mps 615 mmHg 92%
    21:00 -10°C° 0 mm 1 mps 616 mmHg 91%
    22:00 -10°C° 0 mm 1 mps 616 mmHg 90%
    23:00 -11°C° 0 mm 1 mps 615 mmHg 85%

    Day after tomorrow, 1 April, Wednesday

    Time Temperature Precipitation Wind Pressure Humidity
    00:00 -11°C° 0 mm 1 mps 615 mmHg 80%
    01:00 -11°C° 0 mm 1 mps 615 mmHg 75%
    02:00 -11°C° 0 mm 1 mps 615 mmHg 70%
    03:00 -11°C° 0 mm 1 mps 614 mmHg 64%
    04:00 -11°C° 0 mm 1 mps 614 mmHg 59%
    05:00 -10°C° 0 mm 1 mps 614 mmHg 57%
    06:00 -9°C° 0 mm 1 mps 615 mmHg 56%
    07:00 -8°C° 0 mm 1 mps 615 mmHg 54%
    08:00 -6°C° 0 mm 1 mps 616 mmHg 51%
    09:00 -2°C° 0 mm 1 mps 616 mmHg 48%
    10:00 0°C° 0 mm 1 mps 617 mmHg 45%
    11:00 +1°C° 0 mm 1 mps 617 mmHg 48%
    12:00 +2°C° 0 mm 1 mps 617 mmHg 52%
    13:00 +3°C° 0 mm 1 mps 617 mmHg 55%
    14:00 +3°C° 0 mm 1 mps 617 mmHg 57%
    15:00 +3°C° 0 mm 1 mps 616 mmHg 58%
    16:00 +3°C° 0 mm 1 mps 615 mmHg 60%
    17:00 0°C° 0 mm 1 mps 615 mmHg 69%
    18:00 -2°C° 0 mm 1 mps 614 mmHg 78%
    19:00 -4°C° 0 mm 1 mps 613 mmHg 87%
    20:00 -4°C° 0 mm 1 mps 613 mmHg 86%
    21:00 -6°C° 0 mm 1 mps 613 mmHg 85%
    22:00 -6°C° 0 mm 1 mps 613 mmHg 84%
    23:00 -6°C° 0 mm 1 mps 613 mmHg 82%

    2 April, Thursday

    Time Temperature Precipitation Wind Pressure Humidity
    00:00 -6°C° 0 mm 1 mps 613 mmHg 81%
    01:00 -6°C° 0 mm 1 mps 613 mmHg 79%
    02:00 -7°C° 0 mm 1 mps 612 mmHg 78%
    03:00 -7°C° 0 mm 1 mps 612 mmHg 77%
    04:00 -7°C° 0 mm 1 mps 612 mmHg 76%
    05:00 -6°C° 0 mm 1 mps 612 mmHg 74%
    06:00 -6°C° 0 mm 1 mps 612 mmHg 73%
    07:00 -4°C° 0 mm 1 mps 612 mmHg 72%
    08:00 -2°C° 0 mm 1 mps 613 mmHg 67%
    09:00 0°C° 0 mm 1 mps 613 mmHg 62%
    10:00 +3°C° 0 mm 1 mps 614 mmHg 57%
    11:00 +3°C° 0 mm 1 mps 614 mmHg 55%
    12:00 +4°C° 0 mm 1 mps 614 mmHg 54%
    13:00 +5°C° 0 mm 1 mps 614 mmHg 53%
    14:00 +5°C° 0 mm 1 mps 613 mmHg 54%
    15:00 +5°C° 0 mm 1 mps 613 mmHg 55%
    16:00 +5°C° 0 mm 1 mps 612 mmHg 57%
    17:00 +3°C° 0 mm 1 mps 612 mmHg 66%
    18:00 0°C° 0 mm 0 mps 611 mmHg 76%
    19:00 -3°C° 0 mm 0 mps 610 mmHg 86%
    20:00 -3°C° 0 mm 0 mps 611 mmHg 86%
    21:00 -2°C° 0 mm 1 mps 611 mmHg 87%
    22:00 -3°C° 0 mm 1 mps 611 mmHg 88%
    23:00 -3°C° 0 mm 1 mps 611 mmHg 88%

    3 April, Friday

    Time Temperature Precipitation Wind Pressure Humidity
    00:00 -3°C° 0 mm 1 mps 611 mmHg 89%
    01:00 -3°C° 0 mm 1 mps 611 mmHg 89%
    02:00 -3°C° 0 mm 1 mps 611 mmHg 90%
    03:00 -4°C° 0 mm 1 mps 611 mmHg 90%
    04:00 -4°C° 0 mm 1 mps 611 mmHg 90%
    05:00 -3°C° 0 mm 1 mps 612 mmHg 90%
    06:00 -3°C° 0 mm 1 mps 612 mmHg 90%
    07:00 -2°C° 0 mm 1 mps 613 mmHg 90%
    08:00 -1°C° 0 mm 1 mps 613 mmHg 85%
    09:00 0°C° 0 mm 1 mps 614 mmHg 81%
    10:00 +1°C° 0 mm 2 mps 614 mmHg 77%
    11:00 +1°C° 0 mm 2 mps 614 mmHg 74%
    12:00 +2°C° 0 mm 2 mps 615 mmHg 72%
    13:00 +2°C° 0 mm 2 mps 615 mmHg 69%
    14:00 +2°C° 0 mm 2 mps 615 mmHg 71%
    15:00 +2°C° 0 mm 2 mps 615 mmHg 73%
    16:00 +2°C° 0 mm 2 mps 615 mmHg 74%
    17:00 -1°C° 0.1 mm 2 mps 615 mmHg 80%
    18:00 -2°C° 0.1 mm 2 mps 615 mmHg 86%
    19:00 -3°C° 0.1 mm 2 mps 615 mmHg 92%
    20:00 -3°C° 0 mm 2 mps 616 mmHg 92%
    21:00 -2°C° 0 mm 1 mps 616 mmHg 93%
    22:00 -2°C° 0 mm 1 mps 617 mmHg 93%
    23:00 -2°C° 0 mm 1 mps 617 mmHg 92%

    4 April, Saturday

    Time Temperature Precipitation Wind Pressure Humidity
    00:00 -3°C° 0 mm 1 mps 617 mmHg 92%
    01:00 -3°C° 0 mm 1 mps 617 mmHg 91%
    02:00 -3°C° 0 mm 1 mps 617 mmHg 87%
    03:00 -4°C° 0 mm 1 mps 617 mmHg 83%
    04:00 -4°C° 0 mm 1 mps 617 mmHg 79%
    05:00 -3°C° 0 mm 1 mps 618 mmHg 75%
    06:00 -3°C° 0 mm 1 mps 618 mmHg 71%
    07:00 -2°C° 0 mm 1 mps 619 mmHg 67%
    08:00 0°C° 0 mm 1 mps 620 mmHg 61%
    09:00 +2°C° 0 mm 1 mps 620 mmHg 55%
    10:00 +5°C° 0 mm 1 mps 621 mmHg 49%
    11:00 +6°C° 0 mm 1 mps 621 mmHg 47%
    12:00 +7°C° 0 mm 1 mps 622 mmHg 44%
    13:00 +8°C° 0 mm 1 mps 622 mmHg 42%
    14:00 +8°C° 0 mm 1 mps 622 mmHg 45%
    15:00 +8°C° 0 mm 1 mps 622 mmHg 47%
    16:00 +7°C° 0 mm 2 mps 621 mmHg 50%
    17:00 +5°C° 0 mm 1 mps 621 mmHg 62%
    18:00 +3°C° 0 mm 1 mps 620 mmHg 73%
    19:00 +1°C° 0 mm 1 mps 620 mmHg 85%
    20:00 -1°C° 0 mm 2 mps 620 mmHg 86%
    21:00 -2°C° 0 mm 2 mps 621 mmHg 87%
    22:00 -2°C° 0 mm 2 mps 621 mmHg 88%
    23:00 -2°C° 0 mm 2 mps 621 mmHg 89%
    Show more